User: anonymous   Login
Location: Churchill Northern Studies Centre
(58.7378°N, 93.8201°W)
Time: 17:34:57
(UTC-05:00)
Language:

Gurwin Techsat 1B - Orbit

View from above orbital plane
View from above orbital plane
View from above satellite
View from above satellite

Ground track
Ground track

The orbit data is extracted from the following two-line orbital elements,

1 25397U 98043D   18202.89135404 -.00000019 +00000-0 +10694-4 0  9992
2 25397 098.6507 142.7586 0000296 340.9998 019.1169 14.23648637040448
Epoch (UTC): 21 July 2018 21:23:32
Eccentricity: 0.0000296
inclination: 98.6507°
perigee height: 813 km
apogee height: 813 km
right ascension of ascending node: 142.7586°
argument of perigee: 340.9998°
revolutions per day: 14.23648637
mean anomaly at epoch: 19.1169°
orbit number at epoch: 4044

The dashed part of the orbit path shows where the satellite is in the earth's shadow,  

DLR